TimeEDT,TemperatureF,Dew PointF,Humidity,Sea Level PressureIn,VisibilityMPH,Wind Direction,Wind SpeedMPH,Gust SpeedMPH,PrecipitationIn,Events,Conditions,WindDirDegrees,DateUTC
12:52 AM,51.1,36.0,56,30.24,10.0,SSE,5.8,-,N/A,,Partly Cloudy,160,2012-03-28 04:52:00
1:52 AM,50.0,35.1,57,30.23,10.0,South,8.1,-,N/A,,Partly Cloudy,170,2012-03-28 05:52:00
2:52 AM,48.9,37.0,64,30.22,10.0,South,6.9,-,N/A,,Partly Cloudy,170,2012-03-28 06:52:00
3:52 AM,48.0,39.9,74,30.21,10.0,South,5.8,-,N/A,,Partly Cloudy,180,2012-03-28 07:52:00
4:52 AM,51.1,42.1,71,30.19,10.0,South,5.8,-,N/A,,Partly Cloudy,180,2012-03-28 08:52:00
4:59 AM,51.8,42.8,71,30.20,10.0,South,6.9,-,N/A,,Overcast,190,2012-03-28 08:59:00
5:52 AM,53.1,44.1,71,30.19,10.0,South,10.4,-,N/A,,Overcast,190,2012-03-28 09:52:00
6:52 AM,54.0,48.0,80,30.20,10.0,SSW,9.2,-,N/A,,Overcast,210,2012-03-28 10:52:00
7:52 AM,54.0,48.9,83,30.19,10.0,SSW,9.2,-,N/A,,Overcast,210,2012-03-28 11:52:00
8:50 AM,55.4,51.8,88,30.21,7.0,SW,11.5,17.3,N/A,,Overcast,220,2012-03-28 12:50:00
8:52 AM,55.0,51.1,86,30.21,7.0,SW,10.4,17.3,N/A,,Overcast,230,2012-03-28 12:52:00
9:23 AM,55.4,51.8,88,30.20,8.0,SSW,8.1,-,N/A,,Overcast,210,2012-03-28 13:23:00
9:52 AM,55.9,53.1,90,30.19,8.0,SSW,10.4,-,N/A,,Overcast,210,2012-03-28 13:52:00
10:52 AM,59.0,55.0,87,30.17,10.0,SW,10.4,19.6,N/A,,Overcast,220,2012-03-28 14:52:00
11:11 AM,60.8,55.4,82,30.17,10.0,SW,15.0,19.6,N/A,,Overcast,220,2012-03-28 15:11:00
11:45 AM,62.6,55.4,77,30.15,10.0,SSW,15.0,23.0,N/A,,Overcast,210,2012-03-28 15:45:00
11:52 AM,62.1,55.0,78,30.14,10.0,SW,16.1,23.0,N/A,,Overcast,220,2012-03-28 15:52:00
12:52 PM,64.0,55.9,75,30.11,10.0,SSW,16.1,-,N/A,,Overcast,210,2012-03-28 16:52:00
1:10 PM,64.4,55.4,73,30.11,10.0,SW,12.7,21.9,N/A,,Overcast,220,2012-03-28 17:10:00
1:47 PM,66.2,57.2,73,30.08,10.0,SW,9.2,18.4,N/A,,Scattered Clouds,220,2012-03-28 17:47:00
1:52 PM,66.9,57.0,70,30.07,10.0,SSW,11.5,-,N/A,,Partly Cloudy,210,2012-03-28 17:52:00
2:52 PM,70.0,57.0,63,30.03,10.0,SW,9.2,19.6,N/A,,Mostly Cloudy,220,2012-03-28 18:52:00
3:52 PM,71.1,57.0,61,29.99,10.0,WSW,16.1,21.9,N/A,,Overcast,240,2012-03-28 19:52:00
4:52 PM,73.9,57.9,57,29.95,10.0,SW,12.7,19.6,N/A,,Mostly Cloudy,220,2012-03-28 20:52:00
5:52 PM,75.9,57.0,52,29.92,10.0,WSW,11.5,18.4,N/A,,Scattered Clouds,240,2012-03-28 21:52:00
6:52 PM,75.9,55.9,50,29.90,10.0,SW,13.8,20.7,N/A,,Mostly Cloudy,230,2012-03-28 22:52:00
7:52 PM,73.0,55.0,53,29.91,10.0,SW,9.2,-,N/A,,Mostly Cloudy,220,2012-03-28 23:52:00
8:52 PM,72.0,53.1,51,29.92,10.0,SW,8.1,-,N/A,,Partly Cloudy,230,2012-03-29 00:52:00
9:52 PM,71.1,52.0,51,29.94,10.0,SW,8.1,-,N/A,,Clear,230,2012-03-29 01:52:00
10:52 PM,70.0,52.0,53,29.93,10.0,WSW,10.4,-,N/A,,Partly Cloudy,240,2012-03-29 02:52:00
11:52 PM,69.1,51.1,53,29.92,10.0,WSW,6.9,-,N/A,,Partly Cloudy,250,2012-03-29 03:52:00